Regional Weather Roundup
Issued by NWS

Home | Current Version | Previous Version | Text Only | Print | Product List | Glossary Off
Versions: 1 2 3 4 5 6 7 8 9 10 11 12 13 14 15 16 17 18 19 20 21 22 23 24 25 26 27 28 29 30 31 32 33 34 35 36 37 38 39 40 41 42 43 44 45 46 47 48 49 50

000
ASUS43 KIND 231109
RWRIN

WEATHER ROUNDUP FOR INDIANA
NATIONAL WEATHER SERVICE INDIANAPOLIS IN
700 AM EDT WED APR 23 2014

NOTE: "FAIR" INDICATES FEW OR NO CLOUDS BELOW 12,000 FEET WITH NO
SIGNIFICANT WEATHER AND/OR OBSTRUCTIONS TO VISIBILITY.

* - STATION DOES NOT REPORT WEATHER SUCH AS PRECIPITATION OR FOG.

+ - STATION NOT QUALITY CONTROLLED BY THE NATIONAL WEATHER SERVICE.
    USE DATA WITH CAUTION...ESPECIALLY DEWPOINT AND RELATIVE
    HUMIDITY OBSERVATIONS.

INZ001>003-010>013-019-020-231200-
NORTHWEST INDIANA

CITY           SKY/WX    TMP DP  RH WIND       PRES   REMARKS
GARY /AIRPORT/ CLEAR     37  28  70 N14G29    30.15R
LA PORTE +     CLEAR     32  28  83 N9        30.12R WCI  24
MICHIGAN CITY+ CLEAR     34  28  80 N7        30.13R WCI  28
MONTICELLO +   CLEAR     33  29  86 N9        30.09S WCI  25
RENSSELAER +   CLEAR     34  30  86 N7        30.12R WCI  28
VALPARAISO     CLEAR     33  26  75 N8        30.11R WCI  26

$$

LMZ046-743>745-231200-
SOUTHERN LAKE MICHIGAN

STATION/POSITION TIME  TEMP WIND        PRES
                       AIR  DIR/SP/G
                 (UTC) (F)  (DEG/KT/KT) (MB)
MICHIGAN CITY    1100   36  360/ 22/ 25   N/A

$$

INZ004-005-014>016-021>024-231200-
NORTH CENTRAL INDIANA

CITY           SKY/WX    TMP DP  RH WIND       PRES   REMARKS
ELKHART        CLEAR     32  25  74 N6        30.10  WCI  26
GOSHEN         CLEAR     33  27  78 N8        30.09R WCI  26
LOGANSPORT +   CLEAR     32  28  86 NW7       30.10R WCI  26
PERU/GRISSOM   CLEAR     33  33 100 NW6       30.08R WCI  28
ROCHESTER +    CLEAR     36  30  80 N8        30.10R
SOUTH BEND     CLEAR     32  25  75 N7        30.12R WCI  26
WARSAW +       CLEAR     32  28  86 N6        30.09R WCI  26

$$

INZ006>009-017-018-025>027-231200-
NORTHEAST INDIANA

CITY           SKY/WX    TMP DP  RH WIND       PRES   REMARKS
ANGOLA *+      CLEAR     32  27  80 N7        30.07R WCI  26
AUBURN +       CLEAR     34  28  80 NW7       30.08R WCI  28
FORT WAYNE     CLEAR     34  27  75 NW10      30.07R WCI  26

$$

INZ028-029-035-036-043>045-051>053-231200-
WEST CENTRAL INDIANA

CITY           SKY/WX    TMP DP  RH WIND       PRES   REMARKS
GREENCASTLE +  CLEAR     36  28  75 N5        30.10R
LAFAYETTE      CLEAR     33  27  78 NW3       30.12R
TERRE HAUTE    PTCLDY    39  28  64 N6        30.11R

$$

INZ030>032-037>040-046>048-054>057-064-065-231200-
CENTRAL INDIANA

CITY           SKY/WX    TMP DP  RH WIND       PRES   REMARKS
CP ATTERBURY + CLEAR     36  30  80 NW5       30.09R
COLUMBUS       CLEAR     36  30  80 N6        30.08
INDIANAPOLIS   CLEAR     34  27  75 NW7       30.07R WCI  28
-EAGLE CREEK   CLEAR     37  28  70 NW9       30.08R
KOKOMO *+      CLEAR     34  27  75 N7        30.08R WCI  28
MARION +       CLEAR     33  27  77 N6        30.08R WCI  28
MT COMFORT *+  CLEAR     34  28  80 NW8       30.08R WCI  27
SHELBYVILLE    CLEAR     36  28  73 N7        30.07R
ZIONSVILLE +   CLEAR     34  27  75 NW7       30.09R WCI  28

$$

INZ033-034-041-042-049-050-058-059-231200-
EAST CENTRAL INDIANA

CITY           SKY/WX    TMP DP  RH WIND       PRES   REMARKS
MUNCIE         CLEAR     33  28  81 NW7       30.06R WCI  27

$$

INZ060-061-067>069-081>083-085>088-231200-
SOUTHWEST INDIANA

CITY           SKY/WX    TMP DP  RH WIND       PRES   REMARKS
EVANSVILLE     CLEAR     45  36  70 N6        30.09R
HUNTINGBURG *+ PTCLDY    43  30  61 NE5       30.09R
WASHINGTON +   PTCLDY    38  33  82 N5        30.10R

$$

INZ062-063-066-070>080-084-089>092-231200-
SOUTH CENTRAL AND SOUTHEAST INDIANA

CITY           SKY/WX    TMP DP  RH WIND       PRES   REMARKS
BEDFORD +      PTCLDY    41  27  56 N5        30.08
BLOOMINGTON    CLEAR     38  28  67 N3        30.08R
NORTH VERNON + CLEAR     39  30  70 N7        30.08

$$




USA.gov is the U.S. government's official web portal to all federal, state and local government web resources and services.